Weather History for KFQD - July, 2013

Change the Weather History Date:

Saturday, July 6, 2013

  Actual Average (KAVL) Record (KAVL)
Temperature  
Mean Temperature 76 °F 74 °F  
Max Temperature 83 °F 84 °F 93 °F (1993)
Min Temperature 69 °F 63 °F 51 °F (1933)
Degree Days  
Heating Degree Days 0 0  
Month to date heating degree days 0  
Since 1 June heating degree days 14  
Since 1 July heating degree days 0  
Cooling Degree Days 11 9  
Month to date cooling degree days 50  
Year to date cooling degree days 285  
Since 1 June cooling degree days 227  
Growing Degree Days 26 (Base 50)    
Moisture  
Dew Point 71 °F    
Average Humidity 89    
Maximum Humidity 99    
Minimum Humidity 65    
Precipitation  
Precipitation 0.42 in 0.13 in 1.35 in (2008)
Month to date precipitation 0.85  
Year to date precipitation 23.75  
Snow  
Snow 0.00 in 0.00 in 0.00 in ()
Month to date snowfall 0.0  
Since 1 June snowfall 0.0  
Since 1 July snowfall 0.0  
Snow Depth -    
Sea Level Pressure  
Sea Level Pressure 30.22 in    
Wind  
Wind Speed 4 mph (SSE)    
Max Wind Speed 14 mph    
Max Gust Speed 21 mph    
Visibility 9 miles    
Events Rain , Thunderstorm    
T = Trace of Precipitation, MM = Missing Value Source: NWS Daily Summary

Daily Weather History Graph

Daily Weather History Graph

Search for Another Location

Airport or City:

Trip Planner

Search our weather history database for the weather conditions in past years. The results will help you decide how hot, cold, wet, or windy it might be!

Date:

Astronomy

Jul. 06, 2013 Rise Set
Actual Time 6:18 AM EDT 8:46 PM EDT
Civil Twilight 5:49 AM EDT 9:15 PM EDT
Nautical Twilight 5:12 AM EDT 9:52 PM EDT
Astronomical Twilight 4:32 AM EDT 10:32 PM EDT
Moon 5:01 AM EDT (7/6) 7:28 PM EDT (7/6)
Length of Visible Light 15h 26m
Length of Day
14h 27m
Waning Crescent, 2% of the Moon is Illuminated
Jul 6
Waning Crescent
Jul 8
New
Jul 15
First Quarter
Jul 22
Full
Jul 29
Last Quarter

Hourly Weather History & Observations

Time (EDT) Temp. Heat Index Dew Point Humidity Pressure Visibility Wind Dir Wind Speed Gust Speed Precip Events Conditions
12:15 AM 69.4 °F - 69.1 °F 99% 30.26 in 7.0 mi Calm Calm - N/A   Overcast
12:35 AM 69.4 °F - 69.1 °F 99% 30.25 in 5.0 mi Calm Calm - 0.01 in Rain Light Rain
12:55 AM 69.8 °F - 69.3 °F 98% 30.25 in 10.0 mi Calm Calm - 0.01 in   Overcast
1:15 AM 69.8 °F - 69.3 °F 98% 30.24 in 10.0 mi Calm Calm - N/A   Overcast
1:35 AM 69.4 °F - 69.1 °F 99% 30.24 in 7.0 mi Calm Calm - N/A   Overcast
1:55 AM 69.8 °F - 69.3 °F 98% 30.24 in 10.0 mi East 3.5 mph - N/A   Overcast
2:15 AM 69.8 °F - 69.4 °F 99% 30.23 in 7.0 mi East 4.6 mph - N/A   Overcast
2:35 AM 70.0 °F - 69.8 °F 99% 30.23 in 7.0 mi SE 4.6 mph - N/A   Overcast
2:55 AM 70.3 °F - 70.0 °F 99% 30.23 in 7.0 mi ESE 4.6 mph - N/A   Overcast
3:15 AM 70.3 °F - 70.0 °F 99% 30.23 in 7.0 mi SE 5.8 mph - N/A   Overcast
3:35 AM 70.7 °F - 70.0 °F 98% 30.23 in 10.0 mi South 6.9 mph - N/A   Overcast
3:55 AM 70.7 °F - 70.0 °F 98% 30.22 in 10.0 mi SE 4.6 mph - N/A   Overcast
4:15 AM 70.3 °F - 70.0 °F 99% 30.22 in 10.0 mi SE 4.6 mph - N/A   Overcast
4:35 AM 70.3 °F - 70.0 °F 99% 30.22 in 7.0 mi SE 5.8 mph - 0.01 in   Overcast
4:55 AM 70.3 °F - 70.0 °F 99% 30.23 in 10.0 mi SE 5.8 mph - 0.01 in   Overcast
5:15 AM 70.5 °F - 70.0 °F 98% 30.23 in 10.0 mi SSE 5.8 mph - N/A   Overcast
5:35 AM 70.3 °F - 70.0 °F 99% 30.23 in 4.0 mi SSE 6.9 mph - N/A Rain Rain
5:55 AM 70.3 °F - 70.0 °F 99% 30.23 in 4.0 mi South 9.2 mph - N/A Rain Light Rain
6:15 AM 70.3 °F - 70.0 °F 99% 30.24 in 5.0 mi SSE 6.9 mph - N/A   Overcast
6:35 AM 70.7 °F - 70.2 °F 98% 30.24 in 5.0 mi South 8.1 mph - N/A   Overcast
6:55 AM 70.3 °F - 70.0 °F 99% 30.24 in 5.0 mi SSE 5.8 mph - N/A   Overcast
7:15 AM 70.7 °F - 70.2 °F 98% 30.25 in 5.0 mi SSE 4.6 mph - N/A   Overcast
7:35 AM 70.7 °F - 70.0 °F 98% 30.25 in 5.0 mi SSE 4.6 mph - N/A   Overcast
7:55 AM 70.9 °F - 70.3 °F 98% 30.26 in 7.0 mi SSE 5.8 mph - N/A   Overcast
8:15 AM 71.1 °F - 70.5 °F 98% 30.26 in 7.0 mi SSE 5.8 mph - N/A   Overcast
8:35 AM 72.1 °F - 71.1 °F 96% 30.26 in 7.0 mi SSE 5.8 mph - N/A   Overcast
8:55 AM 72.5 °F - 71.1 °F 95% 30.26 in 7.0 mi South 6.9 mph - N/A   Overcast
9:15 AM 73.9 °F - 71.1 °F 91% 30.26 in 10.0 mi South 8.1 mph - N/A   Overcast
9:35 AM 73.4 °F - 71.1 °F 92% 30.26 in 7.0 mi SSE 9.2 mph - N/A Rain Light Rain
9:55 AM 72.5 °F - 70.2 °F 92% 30.26 in 10.0 mi SSW 6.9 mph - N/A   Overcast
10:15 AM 72.5 °F - 70.7 °F 94% 30.26 in 7.0 mi SSW 6.9 mph - N/A   Light Drizzle
10:35 AM 74.7 °F - 71.1 °F 88% 30.25 in 10.0 mi South 4.6 mph - N/A   Mostly Cloudy
10:55 AM 76.3 °F - 70.7 °F 83% 30.25 in 10.0 mi SSE 5.8 mph - N/A   Mostly Cloudy
11:15 AM 77.0 °F - 71.1 °F 82% 30.26 in 10.0 mi SSE 5.8 mph 9.2 mph N/A   Mostly Cloudy
11:35 AM 79.2 °F - 70.9 °F 76% 30.25 in 10.0 mi SSE 12.7 mph 17.3 mph N/A   Overcast
11:55 AM 79.7 °F - 70.5 °F 73% 30.25 in 10.0 mi South 11.5 mph 18.4 mph N/A   Mostly Cloudy
12:15 PM 79.7 °F - 70.7 °F 74% 30.25 in 10.0 mi South 8.1 mph - N/A   Mostly Cloudy
12:35 PM 80.2 °F 83.5 °F 70.2 °F 71% 30.24 in 10.0 mi SSE 10.4 mph 17.3 mph N/A   Mostly Cloudy
12:55 PM 80.1 °F 83.4 °F 70.5 °F 73% 30.24 in 10.0 mi South 9.2 mph - N/A   Mostly Cloudy
1:15 PM 81.7 °F 85.8 °F 71.2 °F 70% 30.23 in 10.0 mi SSE 8.1 mph - N/A   Mostly Cloudy
1:35 PM 80.6 °F 83.9 °F 69.8 °F 70% 30.22 in 10.0 mi SSE 6.9 mph - N/A   Mostly Cloudy
1:55 PM 82.2 °F 85.8 °F 69.4 °F 65% 30.21 in 10.0 mi SSE 9.2 mph - N/A   Overcast
2:15 PM 80.2 °F 83.5 °F 70.2 °F 71% 30.21 in 10.0 mi SSE 8.1 mph 19.6 mph N/A Rain Light Rain
2:35 PM 79.5 °F - 70.0 °F 72% 30.21 in 10.0 mi SSW 13.8 mph 20.7 mph N/A   Overcast
2:55 PM 80.6 °F 84.2 °F 70.9 °F 72% 30.20 in 10.0 mi Calm Calm - N/A   Mostly Cloudy
3:15 PM 82.4 °F 86.7 °F 70.7 °F 68% 30.19 in 10.0 mi SSE 6.9 mph - N/A   Scattered Clouds
3:35 PM 81.7 °F 85.6 °F 70.5 °F 69% 30.18 in 10.0 mi SSE 4.6 mph - N/A   Mostly Cloudy
3:55 PM 83.7 °F 88.9 °F 71.6 °F 67% 30.17 in 10.0 mi SE 13.8 mph - N/A   Mostly Cloudy
4:15 PM 83.8 °F 88.6 °F 70.9 °F 65% 30.15 in 10.0 mi SSE 5.8 mph - N/A   Scattered Clouds
4:35 PM 81.0 °F 84.7 °F 70.9 °F 71% 30.16 in 10.0 mi SSE 5.8 mph - N/A   Mostly Cloudy
4:55 PM 81.7 °F 85.8 °F 71.2 °F 70% 30.15 in 10.0 mi SSE 5.8 mph - 0.01 in   Overcast
5:15 PM 79.0 °F - 72.7 °F 81% 30.15 in 10.0 mi WSW 5.8 mph - N/A   Overcast
5:35 PM 77.9 °F - 72.1 °F 82% 30.15 in 10.0 mi West 4.6 mph - N/A   Overcast
5:55 PM 80.4 °F 84.4 °F 71.8 °F 75% 30.14 in 10.0 mi West 4.6 mph - N/A   Overcast
6:15 PM 77.9 °F - 72.0 °F 82% 30.14 in 10.0 mi West 5.8 mph - N/A Rain , Thunderstorm Rain
6:35 PM 76.3 °F - 71.8 °F 86% 30.15 in 10.0 mi Calm Calm - N/A Thunderstorm Overcast
6:55 PM 72.5 °F - 71.6 °F 97% 30.18 in 4.0 mi SW 6.9 mph 18.4 mph 0.37 in Rain , Thunderstorm Light Thunderstorms and Rain
7:15 PM 72.5 °F - 71.4 °F 96% 30.18 in 10.0 mi SSW 3.5 mph - N/A   Overcast
7:35 PM 72.5 °F - 71.4 °F 96% 30.17 in 10.0 mi Calm Calm - N/A   Scattered Clouds
7:55 PM 73.0 °F - 72.0 °F 96% 30.19 in 10.0 mi Calm Calm - N/A   Mostly Cloudy
8:15 PM 72.9 °F - 71.6 °F 96% 30.19 in 10.0 mi Calm Calm - N/A   Overcast
8:35 PM 73.0 °F - 71.6 °F 95% 30.19 in 7.0 mi Calm Calm - N/A   Light Drizzle
8:55 PM 72.7 °F - 72.0 °F 98% 30.19 in 10.0 mi Calm Calm - 0.01 in   Overcast
9:15 PM 72.5 °F - 71.8 °F 98% 30.19 in 10.0 mi Calm Calm - N/A   Mostly Cloudy
9:35 PM 72.5 °F - 71.8 °F 98% 30.19 in 10.0 mi Calm Calm - N/A Thunderstorm Overcast
9:55 PM 72.7 °F - 72.0 °F 98% 30.20 in 10.0 mi SE 3.5 mph - N/A Rain Rain
10:15 PM 72.9 °F - 71.6 °F 96% 30.20 in 10.0 mi SSE 6.9 mph - N/A   Overcast
10:35 PM 72.5 °F - 71.6 °F 97% 30.21 in 10.0 mi SSE 4.6 mph - N/A   Overcast
10:55 PM 72.1 °F - 71.6 °F 98% 30.21 in 10.0 mi SSE 5.8 mph - N/A   Overcast
11:15 PM 72.3 °F - 71.6 °F 98% 30.21 in 10.0 mi South 5.8 mph - N/A   Overcast
11:35 PM 72.1 °F - 71.6 °F 98% 30.21 in 7.0 mi SSE 4.6 mph - 0.01 in Rain Light Rain
11:55 PM 72.3 °F - 71.6 °F 98% 30.21 in 7.0 mi South 4.6 mph - 0.01 in Rain Light Rain